User: anonymous   Login
Location: ????????
(38.4362°N, 22.8767°E)
Time: 16:03:19
(UTC+00:00)
Language:

Delta 2 Rocket - Orbit

View from above orbital plane
View from above orbital plane
View from above satellite
View from above satellite

Ground track
Ground track

The orbit data is extracted from the following two-line orbital elements,

1 20453U 90008B   24166.79282791  .00013162  00000-0  49254-3 0  9995
2 20453  35.6172 207.4703 0200148   5.9487 354.3552 15.09839081829168
Epoch (UTC): 14 June 2024 19:01:40
Eccentricity: 0.0200148
inclination: 35.6172°
perigee height: 398 km
apogee height: 675 km
right ascension of ascending node: 207.4703°
argument of perigee: 5.9487°
revolutions per day: 15.09839081
mean anomaly at epoch: 354.3552°
orbit number at epoch: 82916

The dashed part of the orbit path shows where the satellite is in the earth's shadow,  

DLR